STARLINK-1332 (45579 NORAD) Tracking and Keplerian Element Data

This shows tracking and keplerian element data for the satellite.

Feedback or suggestion? Click here.




ElementValue
Catalog45579
NameSTARLINK-1332
Epoch Orbit549
Epoch Day144.25001157
Epoch Year2020
RAAN249.081
Inclination52.9988
Eccentricity0.0001075
Argument of Perigee89.3004
Mean Anonmoly124.6102
Mean Motion15.62733663
Decay Rate0.00051362
L11 45579U 20025BA 20144.25001157 .00051362 00000-0 56363-3 0 9994
L22 45579 52.9988 249.0810 0001075 89.3004 124.6102 15.62733663 5490

Live tracking and technical data element details for STARLINK-1332 (NORAD 45579). STARLINK-1332 can be tracked NOW for your location showing map with azimuth and elevation plus other details from your city location.

Track the satellite on the map from your city or location and see movement details for azimuth, elevation, latitude, longitude, range, height, and movement on the map or in text.







IsCatalogInMostPopularTable: catalog: 45579, numindb: 9
Update: records affected: 1



GetName: 45579 STARLINK-1332

Hit Count: updated at: Mon, 25 May 2020 07:17:29 GMT